Preview of NWS' New Version of Forecast
This preview is not operational and should not be used for support decisions.

Regional Weather Roundup (RWR)

Issued by National Weather Service (NWS)

                            
000
ASUS43 KTOP 190959
RWRKS 

WEATHER ROUNDUP FOR KANSAS
NATIONAL WEATHER SERVICE GOODLAND KS
500 AM CDT MON AUG 19 2019

NOTE:  "FAIR" INDICATES FEW OR NO CLOUDS BELOW 12,000 FEET WITH NO
SIGNIFICANT WEATHER AND/OR OBSTRUCTIONS TO VISIBILITY.

KSZ001>006-013>018-027>032-041>047-191100-
NORTHWEST KANSAS
  
CITY           SKY/WX    TMP DP  RH WIND       PRES   REMARKS
GOODLAND       CLEAR     64  63  96 S8        30.00R                  
HAYS           CLEAR     71  69  93 NE8       29.85R                  
HILL CITY      CLEAR     68  67  96 E7        29.97S                  
RUSSELL        CLEAR     71  69  93 NE7       29.93R                  
$$

KSZ061>065-074>080-084>089-191100-
SOUTHWEST KANSAS
  
CITY           SKY/WX    TMP DP  RH WIND       PRES   REMARKS
DODGE CITY     CLEAR     69  68  96 SE3       29.95R FOG              
GARDEN CITY    CLEAR     67  65  93 E5        29.95S                  
GREAT BEND     CLEAR     73  72  96 E6        29.93R                  
LIBERAL        CLEAR     69  67  93 S7        29.96S                  
$$

KSZ066>073-081>083-090>101-191100-
SOUTHEAST KANSAS
  
CITY           SKY/WX    TMP DP  RH WIND       PRES   REMARKS
CHANUTE        PTCLDY    77  72  84 SE6       29.95R                  
COFFEYVILLE    PTCLDY    75  72  90 SE5       29.92S                  
HUTCHINSON     CLEAR     76  73  91 E8        29.92R                  
MEDICINE LODGE   N/A     76  74  93 SE9       29.89S                  
NEWTON         CLEAR     74  73  97 E10       29.94S                  
PARSONS        MOCLDY    76  73  91 CALM      29.95R                  
WICHITA INTL   PTCLDY    78  73  84 SE8       29.91R                  
WICHITA JABRA  CLEAR     75  74  96 E5        29.92S                  
WICHITA MCCONL CLEAR     76  71  84 E6        29.92R                  
WINFIELD       CLEAR     77  72  84 SE8       29.92S                  
$$

KSZ007>012-019>026-033>040-048>060-102>105-191100-
NORTHEAST KANSAS
  
CITY           SKY/WX    TMP DP  RH WIND       PRES   REMARKS
CONCORDIA      CLEAR     68  66  93 E5        29.96S                  
EMPORIA        PTCLDY    74  74 100 SE5       29.94S                  
LAWRENCE       CLEAR     72  68  87 CALM      29.95S                  
MANHATTAN      PTCLDY    72  68  87 NE6       29.95S                  
OLATHE IND     CLEAR     73  71  93 CALM      29.97R                  
OLATHE EXE     CLEAR     73  71  93 CALM      29.96S                  
SALINA         CLEAR     74  70  87 NE6       29.93S                  
TOPEKA BILLARD PTCLDY    71  68  90 CALM      29.95S                  
TOPEKA FORBES  PTCLDY    73  69  87 CALM      29.96R                  
$$